Wind_Speed
20 20 21 21 21 22 22 23 24 24 25 25 26 26 27 28 28 28 28 28 28 28 28 28 29 30 30 31 32 33 33 33 33 33 34 34 34 34 34 34 34 34 34
21 21 21 21 22 22 22 22 22 23 24 25 25 25 26 27 27 27 27 27 28 27 27 27 27 28 29 30 30 31 31 31 31 31 32 33 32 33 33 32 32 32 33
22 22 22 22 22 22 22 22 22 23 23 23 24 24 25 25 25 25 25 26 27 26 26 26 26 27 26 27 28 28 28 28 29 30 29 29 30 31 30 31 31 31 32
23 23 23 23 23 23 23 23 23 23 23 23 23 23 23 24 23 24 24 24 24 24 24 24 24 25 25 25 26 26 26 26 27 27 27 28 28 29 28 29 29 30 31
24 23 23 23 24 23 23 24 24 24 23 23 23 23 23 22 22 22 23 23 23 23 23 23 23 24 25 25 25 25 25 25 25 25 26 26 26 26 27 28 28 29 29
25 24 23 23 24 24 24 24 23 23 23 23 23 23 23 23 23 22 22 22 22 22 23 23 23 23 22 23 23 24 24 23 23 23 24 24 24 24 25 26 27 27 28
24 24 24 23 23 23 23 22 22 22 22 22 23 23 22 22 22 22 22 21 21 21 21 21 20 21 21 20 21 21 21 22 22 21 22 23 23 24 25 25 26 26 27
22 23 23 22 22 21 21 21 21 20 20 21 20 19 19 19 19 18 18 18 18 18 18 18 18 18 18 18 19 20 20 20 20 21 22 22 23 23 24 24 25 25 26
20 20 20 20 19 19 19 19 19 18 17 17 16 15 16 15 15 15 15 15 14 15 16 16 17 17 17 18 18 18 19 19 20 21 21 21 22 22 22 23 23 23 23
17 16 16 16 16 16 16 16 16 16 15 15 15 14 13 12 13 13 13 13 13 14 14 15 15 16 17 17 17 18 18 19 20 21 21 21 21 21 21 21 21 21 21
14 14 13 12 12 12 12 13 13 13 13 12 12 11 11 11 11 11 11 12 12 13 14 14 15 16 16 16 17 17 18 19 20 20 20 20 20 20 19 19 19 19 19
10 10 9 10 10 10 9 10 10 11 11 10 11 10 10 10 10 10 10 10 10 11 12 13 13 14 15 15 16 16 17 17 18 18 18 18 17 17 17 16 17 17 17
7 7 7 8 8 8 8 8 9 9 10 9 8 8 8 8 7 8 8 8 9 9 10 11 12 13 14 14 15 15 15 15 15 15 15 15 14 14 14 14 15 15 15
4 5 6 6 6 6 6 7 8 7 7 7 7 7 7 7 6 6 6 6 7 8 9 10 11 12 12 12 13 13 12 12 12 12 12 12 12 12 12 13 13 14 14
3 4 4 5 7 6 6 6 6 6 6 6 6 5 5 5 5 5 6 5 6 7 8 9 9 10 10 10 10 10 10 9 9 10 10 10 10 11 11 12 12 12 12
3 3 3 5 6 6 6 6 6 5 5 4 5 5 4 4 4 4 4 4 5 5 6 7 7 7 7 7 7 6 7 7 8 8 8 9 9 9 10 10 10 10 9
3 4 4 5 6 7 7 6 6 6 5 4 4 4 3 3 3 3 3 3 3 4 4 4 4 4 3 4 4 5 5 6 7 7 7 7 8 8 8 8 8 7 7
6 6 6 6 7 7 7 6 6 6 6 6 5 5 4 3 2 2 2 1 0 0 1 1 2 2 2 3 3 4 5 5 5 6 6 6 5 5 6 6 6 6 6
7 7 8 8 9 8 8 8 8 8 8 8 8 7 7 6 6 5 5 5 4 4 3 3 3 3 3 3 3 3 3 4 4 4 4 4 4 4 5 5 6 6 6
8 9 9 9 10 10 10 10 10 10 10 10 10 9 8 8 8 8 8 7 7 6 6 5 5 5 5 4 4 4 4 4 4 4 4 4 4 4 5 5 6 6 6
11 11 11 11 11 11 11 12 12 12 12 11 11 11 11 10 10 10 10 10 9 9 8 7 7 7 7 7 6 6 5 5 5 5 5 5 5 5 5 6 6 6 6
13 13 13 13 13 13 14 14 14 13 13 12 12 12 13 13 12 12 12 11 11 10 9 9 9 9 8 8 8 7 7 7 7 6 6 6 6 6 6 6 7 7 8
15 15 15 15 15 15 15 15 15 15 14 14 14 14 14 14 14 13 13 13 12 11 11 11 10 10 10 10 9 9 8 7 7 7 7 7 7 7 7 8 8 9 9
16 16 16 16 17 17 17 16 16 16 15 15 15 15 14 14 14 13 13 12 12 12 12 12 12 11 11 10 10 9 8 8 8 8 8 8 8 8 9 9 10 11 11
17 17 17 17 17 17 17 17 16 16 16 16 15 15 15 14 14 13 13 13 13 13 13 12 12 12 11 11 10 10 10 9 9 9 9 9 9 10 10 11 11 12 12
17 17 17 17 17 17 17 16 16 16 16 15 15 15 15 14 14 13 13 13 13 12 12 12 11 11 11 11 11 11 11 10 10 10 10 11 11 12 12 12 13 13 14
Wind_Direction
274 271 270 269 268 266 261 259 258 257 256 253 251 250 250 250 250 247 248 250 250 249 248 248 246 247 246 249 251 251 253 256 257 260 262 265 267 268 272 273 275 278 280
276 275 273 270 269 268 262 259 258 258 257 255 252 251 250 250 249 248 248 250 250 248 247 247 247 248 249 251 252 252 253 254 256 259 263 266 268 272 275 276 279 282 284
280 277 274 272 270 268 263 261 260 258 257 255 252 251 251 250 250 247 247 247 246 245 246 247 248 248 251 252 253 254 256 258 260 264 267 270 274 277 278 280 282 284 286
281 279 276 273 272 268 264 262 262 259 257 256 254 252 251 250 247 246 245 244 244 245 246 248 249 250 254 255 254 256 259 262 264 267 271 275 277 279 281 283 285 288 290
281 279 277 274 271 269 267 265 263 260 258 257 255 255 254 252 247 246 245 243 243 244 246 248 251 253 254 254 257 259 261 265 268 272 275 276 279 282 286 288 289 291 292
278 276 276 274 270 269 268 266 264 263 261 257 254 254 254 253 250 248 247 246 246 247 247 248 249 251 251 254 257 261 264 268 271 274 277 280 284 287 289 290 291 293 294
277 274 275 274 270 267 266 264 262 262 260 257 255 255 253 253 250 247 247 245 246 248 247 247 250 253 256 259 262 263 266 269 273 277 281 285 287 289 290 292 293 294 295
276 274 274 272 267 264 263 260 259 258 259 256 257 253 247 245 243 240 242 244 245 246 248 248 250 254 257 261 264 267 270 273 276 280 283 286 289 290 291 292 293 295 296
279 274 271 266 261 259 258 256 258 257 255 254 251 244 239 238 240 240 241 242 245 248 248 249 251 256 260 263 266 269 271 275 279 282 285 288 289 291 292 294 295 296 297
277 272 266 262 259 257 255 252 252 250 250 248 244 240 239 239 239 243 244 242 246 249 251 253 255 259 262 263 267 270 274 279 283 285 288 289 291 293 294 295 296 297 298
272 266 260 256 252 250 249 243 241 239 240 239 238 236 237 237 240 244 245 243 247 253 257 260 261 263 264 265 270 275 280 284 286 288 288 290 292 294 295 296 297 298 299
266 259 252 246 245 242 242 236 230 230 230 232 233 236 236 236 240 242 246 245 250 258 262 263 267 271 274 274 277 279 282 284 286 288 290 292 294 295 296 297 298 298 299
261 251 242 236 230 226 225 224 222 222 222 226 229 232 229 230 238 244 250 254 260 267 267 268 274 278 280 281 281 282 283 284 289 292 293 294 294 296 297 298 299 300 301
249 232 227 218 214 215 214 213 216 217 211 214 219 222 225 227 233 237 242 258 270 274 276 279 281 282 284 284 284 286 289 292 294 294 294 295 296 297 298 300 302 304 303
216 198 202 207 205 199 195 192 193 197 197 199 198 200 208 220 229 241 252 263 276 280 283 285 284 284 284 286 288 290 292 294 295 296 296 298 299 301 303 305 306 307 305
169 172 169 165 166 168 172 173 171 173 171 172 181 188 199 210 222 240 258 268 277 283 288 288 286 287 288 290 291 294 298 302 303 302 301 302 305 307 309 311 311 311 309
142 145 144 149 154 156 154 152 150 148 150 150 151 157 167 188 215 240 252 259 272 282 293 297 297 300 302 304 305 307 310 312 311 309 308 310 312 314 316 318 319 317 315
118 123 126 134 140 139 137 134 131 131 135 135 132 133 133 129 127 135 142 148 125 53 16 11 8 357 339 326 322 322 320 319 319 319 320 322 324 325 327 329 330 330 326
117 118 121 124 126 125 124 124 123 123 124 122 119 116 112 108 106 106 104 98 93 87 79 68 52 39 25 13 4 357 350 346 345 342 341 342 342 341 338 338 338 337 335
116 118 119 119 120 120 120 121 121 120 119 117 114 110 106 105 103 99 96 92 90 87 81 74 66 58 50 47 44 41 35 28 22 16 13 10 3 356 351 348 346 343 340
114 116 117 117 119 119 119 119 120 119 118 114 110 106 103 102 101 98 95 91 87 85 81 75 70 64 61 59 58 56 53 49 44 40 34 26 17 8 2 357 351 346 341
110 111 113 114 115 115 116 116 116 115 113 110 108 106 104 102 99 96 93 90 87 83 80 77 72 68 65 63 62 60 58 56 51 44 36 27 18 10 3 356 349 343 336
107 108 109 111 112 114 115 115 114 113 111 109 107 106 103 100 97 94 91 88 85 83 80 76 72 69 66 64 62 59 56 51 43 35 26 19 14 6 358 351 345 339 333
107 108 109 111 112 113 113 113 112 110 108 107 106 104 101 99 96 94 90 87 84 81 77 74 71 68 64 60 56 52 46 41 34 27 19 13 6 360 352 346 341 336 333
107 108 109 110 111 111 111 110 110 109 109 107 105 103 101 98 95 92 89 86 82 78 75 71 67 63 59 54 49 44 40 35 29 22 16 10 4 357 352 347 343 340 337
108 109 110 111 111 111 111 110 110 110 109 107 105 103 100 97 94 91 87 84 80 76 71 67 62 58 53 48 43 39 34 29 23 17 12 8 4 0 357 353 349 345 342
Height
5765 5765 5764 5764 5763 5763 5763 5763 5764 5764 5765 5766 5767 5768 5770 5772 5773 5775 5777 5778 5780 5781 5782 5783 5785 5786 5787 5788 5789 5790 5791 5793 5793 5793 5793 5792 5792 5791 5790 5789 5788 5787 5785
5760 5759 5758 5758 5758 5758 5758 5758 5758 5759 5759 5760 5761 5762 5764 5765 5767 5768 5770 5772 5773 5774 5776 5777 5778 5779 5780 5782 5783 5783 5784 5784 5785 5785 5785 5784 5784 5783 5782 5781 5779 5778 5776
5754 5753 5752 5752 5752 5752 5752 5752 5753 5753 5753 5754 5755 5756 5758 5759 5760 5761 5763 5765 5767 5768 5769 5771 5772 5773 5774 5775 5776 5777 5777 5777 5777 5778 5777 5777 5776 5775 5774 5773 5771 5770 5768
5747 5747 5746 5746 5746 5746 5746 5747 5747 5747 5747 5748 5749 5750 5752 5753 5754 5756 5757 5759 5761 5762 5764 5765 5766 5767 5768 5769 5770 5770 5771 5771 5771 5771 5771 5770 5769 5768 5767 5766 5764 5762 5761
5741 5740 5740 5740 5739 5740 5740 5741 5741 5741 5742 5742 5743 5745 5746 5747 5748 5750 5751 5753 5755 5757 5758 5759 5761 5762 5763 5764 5764 5765 5765 5765 5765 5765 5764 5763 5762 5761 5760 5759 5757 5755 5753
5734 5734 5733 5733 5733 5733 5734 5734 5735 5735 5736 5737 5738 5739 5740 5742 5743 5745 5746 5748 5749 5751 5752 5754 5755 5756 5757 5758 5759 5759 5759 5759 5759 5759 5758 5757 5756 5755 5754 5752 5751 5749 5747
5727 5726 5726 5726 5726 5726 5727 5727 5728 5729 5730 5731 5732 5733 5734 5736 5737 5739 5741 5742 5744 5745 5747 5748 5749 5750 5751 5752 5753 5753 5754 5753 5753 5753 5752 5751 5750 5749 5748 5746 5744 5742 5740
5720 5720 5719 5719 5720 5720 5721 5721 5722 5723 5724 5725 5726 5727 5729 5731 5732 5734 5736 5737 5738 5740 5742 5743 5744 5745 5746 5747 5747 5748 5748 5748 5748 5748 5747 5746 5744 5743 5741 5740 5738 5736 5733
5713 5713 5713 5713 5713 5714 5715 5716 5717 5718 5719 5721 5722 5723 5724 5726 5728 5730 5731 5733 5734 5736 5737 5738 5739 5740 5741 5742 5743 5743 5743 5743 5743 5742 5741 5740 5738 5737 5735 5734 5732 5730 5728
5708 5707 5707 5708 5708 5709 5710 5711 5713 5714 5715 5717 5718 5719 5720 5722 5724 5726 5727 5729 5730 5732 5733 5734 5735 5736 5737 5737 5738 5738 5738 5737 5737 5736 5735 5734 5732 5731 5729 5728 5726 5724 5722
5702 5702 5703 5703 5704 5705 5706 5707 5709 5710 5712 5713 5714 5716 5717 5719 5721 5722 5724 5725 5727 5728 5729 5730 5731 5732 5732 5732 5732 5733 5732 5732 5731 5730 5729 5728 5727 5725 5724 5722 5720 5719 5717
5698 5698 5699 5700 5701 5702 5703 5704 5706 5707 5709 5710 5712 5713 5715 5716 5718 5719 5721 5722 5723 5725 5726 5726 5727 5727 5728 5728 5728 5728 5727 5727 5726 5725 5724 5723 5722 5720 5719 5717 5716 5714 5713
5696 5696 5697 5698 5699 5700 5701 5702 5704 5705 5707 5708 5709 5711 5712 5714 5715 5717 5718 5719 5720 5722 5722 5723 5723 5723 5723 5724 5723 5723 5723 5722 5721 5720 5719 5718 5717 5716 5715 5714 5712 5710 5709
5694 5694 5695 5696 5697 5698 5700 5701 5702 5704 5705 5706 5707 5709 5710 5712 5713 5715 5716 5717 5718 5719 5719 5720 5720 5720 5720 5720 5719 5719 5718 5718 5717 5716 5715 5715 5713 5712 5711 5710 5709 5707 5705
5693 5693 5694 5695 5696 5698 5699 5700 5701 5703 5704 5705 5706 5707 5709 5711 5712 5713 5714 5716 5716 5716 5717 5717 5717 5717 5717 5716 5716 5716 5715 5715 5714 5713 5712 5712 5711 5710 5708 5707 5705 5704 5702
5692 5693 5694 5695 5696 5697 5699 5700 5701 5702 5704 5705 5706 5707 5708 5710 5711 5712 5713 5714 5714 5714 5715 5714 5714 5714 5714 5714 5714 5713 5713 5712 5711 5711 5710 5709 5708 5707 5706 5704 5703 5702 5700
5693 5694 5694 5695 5697 5698 5699 5700 5702 5703 5704 5705 5706 5707 5708 5709 5710 5711 5712 5713 5713 5713 5713 5713 5713 5712 5712 5712 5712 5712 5711 5710 5710 5709 5708 5707 5706 5705 5704 5703 5701 5700 5699
5694 5694 5695 5696 5697 5699 5700 5701 5702 5703 5705 5706 5706 5707 5708 5709 5710 5711 5711 5712 5712 5712 5712 5712 5712 5712 5711 5711 5711 5710 5710 5709 5708 5708 5707 5706 5705 5704 5703 5702 5700 5699 5698
5695 5696 5697 5698 5699 5700 5701 5702 5703 5705 5706 5706 5707 5708 5709 5710 5710 5711 5711 5712 5712 5712 5712 5712 5712 5712 5711 5711 5710 5710 5709 5708 5708 5707 5706 5705 5704 5703 5702 5701 5700 5699 5697
5697 5698 5699 5700 5701 5702 5703 5704 5705 5706 5707 5708 5709 5710 5711 5711 5712 5712 5712 5713 5713 5713 5713 5713 5713 5712 5712 5711 5710 5710 5709 5709 5708 5707 5706 5705 5704 5703 5702 5701 5700 5699 5697
5700 5701 5701 5702 5703 5704 5705 5707 5708 5709 5710 5711 5711 5712 5713 5713 5714 5714 5714 5715 5715 5715 5715 5714 5714 5713 5713 5712 5711 5711 5710 5709 5708 5707 5707 5706 5705 5703 5702 5701 5700 5698 5697
5703 5704 5705 5706 5707 5707 5709 5710 5711 5712 5713 5714 5714 5715 5716 5716 5717 5717 5717 5717 5717 5717 5717 5716 5716 5715 5714 5714 5713 5712 5711 5710 5709 5708 5707 5706 5705 5704 5703 5701 5700 5698 5697
5708 5708 5709 5710 5710 5711 5712 5714 5715 5715 5716 5717 5718 5718 5719 5720 5720 5720 5720 5720 5720 5720 5719 5719 5718 5718 5717 5716 5715 5714 5713 5712 5711 5710 5708 5707 5706 5704 5703 5701 5700 5698 5696
5712 5713 5713 5714 5715 5716 5717 5718 5719 5720 5720 5721 5722 5722 5723 5723 5724 5724 5724 5724 5723 5723 5722 5722 5721 5720 5719 5718 5717 5716 5714 5713 5712 5711 5709 5708 5706 5704 5703 5701 5699 5697 5695
5717 5717 5718 5719 5720 5721 5722 5722 5723 5724 5725 5725 5726 5726 5727 5727 5727 5727 5727 5727 5727 5726 5725 5724 5724 5722 5721 5720 5719 5717 5716 5715 5713 5711 5710 5708 5706 5704 5702 5700 5698 5696 5693
5722 5723 5723 5724 5725 5726 5726 5727 5728 5728 5729 5730 5730 5730 5731 5731 5731 5731 5731 5730 5730 5729 5728 5727 5726 5725 5724 5722 5721 5719 5718 5716 5714 5712 5710 5708 5706 5704 5702 5699 5697 5694 5692